Orbital Elements at Epoch 2459200.5 (2020-Dec-17.0) TDB
Reference: JPL 22 (heliocentric ecliptic J2000)
Element | Value | Uncertainty (1-sigma) | Units |
e | .2364629713157665 | 4.6132e-08 | |
a | 2.615487500184676 | 1.548e-08 | au |
q | 1.997021554451761 | 1.1882e-07 | au |
i | 4.346969731395583 | 4.7635e-06 | deg |
node | 246.3457431796948 | 7.0877e-05 | deg |
peri | 201.0451814673254 | 7.1627e-05 | deg |
M | 255.9865439740309 | 1.327e-05 | deg |
tp | 2459646.889968250574 (2022-Mar-08.38996825) | 5.9285e-05 | TDB |
period | 1544.996144826534 4.23 | 1.3716e-05 3.755e-08 | d yr |
n | .233010290158633 | 2.0686e-09 | deg/d |
Q | 3.23395344591759 | 1.9141e-08 | au |
|
| | Orbit Determination Parameters
Additional Information
|